Location: Devore Heights
(34.2372°N, 117.4156°W)
Time: 02:21:41
(UTC+00:00)

SR - Pass Details

Date: 18 September 2024
Orbit: 578 x 855 km, 66.7° (Epoch: 02 October)

Event Time Altitude Azimuth Distance (km) Brightness Sun altitude
Rises 04:31:57 0° 348° (NNW) 2,972 ? -32.5°
Reaches altitude 10° 04:34:35 10° 3° (N) 2,105 ? -33.0°
Enters shadow 04:34:49 11° 5° (N) 2,040 ? -33.0°
Maximum altitude 04:38:26 24° 56° (NE) 1,460 - -33.6°
Drops below altitude 10° 04:42:29 10° 109° (ESE) 2,245 - -34.4°
Sets 04:45:24 0° 123° (ESE) 3,219 - -34.9°
